This demonstration page uses our WeatherBlox Daily Observations layout. Learn more.

Left ArrowRight Arrow

Hourly Observations for March 6, 2016

Temp ( °F °C ) Dew Point ( °F °C ) Humidity (%) Winds ( mph kmh ) Pressure ( in mb ) Visibility ( mi km ) Precip ( " mm )
12:54 am 00:54 Clear 45 7.2 29 -1.7 54 54 SSE 8 13 30.03 1017 10 16 0.00 0.00
1:54 am 01:54 Clear 47 8.3 29 -1.7 50 50 SSE 9 15 30.01 1016 10 16 0.00 0.00
2:54 am 02:54 Clear 49 9.4 28 -2.2 44 44 S 13 20 29.97 1015 10 16 0.00 0.00
3:54 am 03:54 Clear 49 9.4 28 -2.2 44 44 S 13 20 29.94 1014 10 16 0.00 0.00
4:54 am 04:54 Clear 48 8.9 28 -2.2 46 46 S 12 19 29.93 1013 10 16 0.00 0.00
5:54 am 05:54 Clear 48 8.9 27 -2.8 44 44 S 12 19 29.90 1013 10 16 0.00 0.00
6:54 am 06:54 Sunny 49 9.4 27 -2.8 43 43 S 14 22 29.86 1011 10 16 0.00 0.00
7:54 am 07:54 Mostly Cloudy 53 11.7 29 -1.7 40 40 S 20 31 29.83 1010 10 16 0.00 0.00
8:54 am 08:54 Sunny 57 13.9 34 1.1 42 42 S 21 33 29.81 1010 10 16 0.00 0.00
9:54 am 09:54 Sunny 64 17.8 39 3.9 40 40 S 22 35 29.78 1009 10 16 0.00 0.00
10:54 am 10:54 Sunny 67 19.4 43 6.1 42 42 S 21 33 29.75 1007 10 16 0.00 0.00
11:54 am 11:54 Sunny 70 21.1 46 7.8 42 42 S 25 41 29.71 1006 10 16 0.00 0.00
12:54 pm 12:54 Sunny 71 21.7 48 8.9 44 44 SSW 22 35 29.68 1005 10 16 0.00 0.00
1:54 pm 13:54 Sunny 74 23.3 50 10 43 43 S 24 39 29.62 1003 10 16 0.00 0.00
2:54 pm 14:54 Partly Cloudy 75 23.9 51 10.6 43 43 S 28 44 29.60 1002 10 16 0.00 0.00
3:54 pm 15:54 Cloudy 73 22.8 52 11.1 48 48 SSW 23 37 29.59 1002 10 16 0.00 0.00
4:54 pm 16:54 Cloudy 71 21.7 51 10.6 49 49 SSW 18 30 29.60 1002 10 16 0.00 0.00
5:54 pm 17:54 Cloudy 69 20.6 51 10.6 53 53 S 18 30 29.60 1002 10 16 0.00 0.00
6:54 pm 18:54 Mostly Cloudy 66 18.9 50 10 56 56 S 13 20 29.61 1003 10 16 0.00 0.00
7:54 pm 19:54 Mostly Cloudy 63 17.2 47 8.3 56 56 S 16 26 29.60 1002 10 16 0.00 0.00
8:54 pm 20:54 Mostly Clear 60 15.6 45 7.2 58 58 S 12 19 29.60 1002 10 16 0.00 0.00
9:54 pm 21:54 Mostly Clear 58 14.4 44 6.7 60 60 S 12 19 29.59 1002 10 16 0.00 0.00
10:54 pm 22:54 Mostly Clear 56 13.3 42 5.6 60 60 S 10 17 29.58 1002 10 16 0.00 0.00
11:54 pm 23:54 Clear 54 12.2 41 5 62 62 S 10 17 29.57 1001 10 16 0.00 0.00

Powered by AerisWeather